When you browse on this site, cookies collect data to enhance your experience and personalize the content and advertising you see.
Visit our Privacy Policy to learn more. By continuing to use the site, you agree to this use of cookies and data.
EN

Hourly Weather Korostyshev

Today, 11 July, Saturday

Time Temperature Precipitation Wind Pressure Humidity
00:00 +19°C° 0 mm 3 mps 747 mmHg 85%
01:00 +18°C° 0 mm 3 mps 748 mmHg 85%
02:00 +18°C° 0 mm 3 mps 748 mmHg 84%
03:00 +18°C° 0 mm 3 mps 748 mmHg 84%
04:00 +18°C° 0 mm 3 mps 748 mmHg 84%
05:00 +18°C° 0 mm 3 mps 747 mmHg 84%
06:00 +20°C° 0 mm 3 mps 748 mmHg 80%
07:00 +22°C° 0 mm 3 mps 748 mmHg 75%
08:00 +25°C° 0 mm 3 mps 748 mmHg 70%
09:00 +26°C° 0 mm 3 mps 748 mmHg 65%
10:00 +28°C° 0 mm 4 mps 748 mmHg 60%
11:00 +29°C° 0 mm 4 mps 748 mmHg 54%
12:00 +29°C° 0 mm 4 mps 748 mmHg 54%
13:00 +30°C° 0 mm 4 mps 747 mmHg 53%
14:00 +30°C° 0 mm 4 mps 747 mmHg 53%
15:00 +30°C° 0 mm 4 mps 747 mmHg 55%
16:00 +30°C° 0 mm 4 mps 747 mmHg 58%
17:00 +29°C° 0 mm 3 mps 746 mmHg 60%
18:00 +28°C° 0 mm 3 mps 746 mmHg 66%
19:00 +26°C° 0 mm 3 mps 746 mmHg 71%
20:00 +24°C° 0 mm 3 mps 746 mmHg 77%
21:00 +22°C° 0 mm 3 mps 746 mmHg 77%
22:00 +21°C° 0 mm 3 mps 746 mmHg 77%
23:00 +20°C° 0 mm 2 mps 746 mmHg 78%

Tomorrow, 12 July, Sunday

Time Temperature Precipitation Wind Pressure Humidity
00:00 +20°C° 0 mm 2 mps 746 mmHg 78%
01:00 +20°C° 0 mm 2 mps 746 mmHg 78%
02:00 +19°C° 0 mm 2 mps 745 mmHg 78%
03:00 +19°C° 0 mm 2 mps 745 mmHg 79%
04:00 +19°C° 0 mm 2 mps 745 mmHg 81%
05:00 +18°C° 0 mm 2 mps 745 mmHg 83%
06:00 +20°C° 0 mm 2 mps 745 mmHg 77%
07:00 +23°C° 0 mm 1 mps 745 mmHg 72%
08:00 +24°C° 0 mm 1 mps 745 mmHg 67%
09:00 +26°C° 0 mm 1 mps 745 mmHg 64%
10:00 +27°C° 0 mm 2 mps 745 mmHg 61%
11:00 +28°C° 0 mm 2 mps 745 mmHg 58%
12:00 +27°C° 1 mm 3 mps 745 mmHg 63%
13:00 +27°C° 1 mm 3 mps 745 mmHg 69%
14:00 +26°C° 1 mm 4 mps 745 mmHg 74%
15:00 +22°C° 1.3 mm 5 mps 745 mmHg 79%
16:00 +19°C° 1.3 mm 6 mps 745 mmHg 85%
17:00 +15°C° 1.3 mm 7 mps 745 mmHg 90%
18:00 +14°C° 0.7 mm 7 mps 745 mmHg 91%
19:00 +12°C° 0.7 mm 7 mps 745 mmHg 92%
20:00 +11°C° 0.7 mm 6 mps 746 mmHg 93%
21:00 +11°C° 0.2 mm 6 mps 746 mmHg 93%
22:00 +11°C° 0.2 mm 6 mps 746 mmHg 92%
23:00 +11°C° 0.2 mm 6 mps 746 mmHg 91%

Day after tomorrow, 13 July, Monday

Time Temperature Precipitation Wind Pressure Humidity
00:00 +11°C° 0 mm 6 mps 746 mmHg 91%
01:00 +11°C° 0 mm 6 mps 746 mmHg 90%
02:00 +11°C° 0 mm 6 mps 746 mmHg 89%
03:00 +10°C° 0 mm 6 mps 746 mmHg 90%
04:00 +10°C° 0 mm 6 mps 746 mmHg 91%
05:00 +9°C° 0 mm 5 mps 746 mmHg 91%
06:00 +11°C° 0 mm 6 mps 746 mmHg 86%
07:00 +13°C° 0 mm 6 mps 746 mmHg 81%
08:00 +15°C° 0 mm 6 mps 746 mmHg 76%
09:00 +16°C° 0 mm 6 mps 746 mmHg 71%
10:00 +17°C° 0 mm 7 mps 746 mmHg 67%
11:00 +18°C° 0 mm 7 mps 746 mmHg 63%
12:00 +20°C° 0.1 mm 7 mps 746 mmHg 61%
13:00 +20°C° 0.1 mm 7 mps 746 mmHg 58%
14:00 +21°C° 0.1 mm 7 mps 746 mmHg 56%
15:00 +20°C° 0 mm 7 mps 745 mmHg 57%
16:00 +20°C° 0 mm 6 mps 745 mmHg 58%
17:00 +20°C° 0 mm 6 mps 745 mmHg 59%
18:00 +17°C° 0 mm 5 mps 745 mmHg 65%
19:00 +16°C° 0 mm 5 mps 745 mmHg 70%
20:00 +14°C° 0 mm 4 mps 745 mmHg 76%
21:00 +14°C° 0 mm 4 mps 745 mmHg 79%
22:00 +13°C° 0 mm 4 mps 745 mmHg 82%
23:00 +12°C° 0 mm 3 mps 745 mmHg 85%

14 July, Tuesday

Time Temperature Precipitation Wind Pressure Humidity
00:00 +11°C° 0 mm 3 mps 745 mmHg 86%
01:00 +11°C° 0 mm 3 mps 745 mmHg 88%
02:00 +10°C° 0 mm 3 mps 745 mmHg 90%
03:00 +10°C° 0 mm 3 mps 745 mmHg 91%
04:00 +10°C° 0 mm 3 mps 745 mmHg 92%
05:00 +10°C° 0 mm 3 mps 745 mmHg 93%
06:00 +12°C° 0 mm 4 mps 745 mmHg 87%
07:00 +14°C° 0 mm 4 mps 745 mmHg 81%
08:00 +17°C° 0 mm 4 mps 746 mmHg 76%
09:00 +18°C° 0 mm 4 mps 746 mmHg 70%
10:00 +19°C° 0 mm 5 mps 746 mmHg 64%
11:00 +21°C° 0 mm 5 mps 746 mmHg 58%
12:00 +21°C° 0.1 mm 5 mps 746 mmHg 57%
13:00 +22°C° 0.1 mm 5 mps 745 mmHg 56%
14:00 +22°C° 0.1 mm 5 mps 745 mmHg 55%
15:00 +22°C° 0.1 mm 4 mps 745 mmHg 57%
16:00 +22°C° 0.1 mm 4 mps 745 mmHg 58%
17:00 +22°C° 0.1 mm 4 mps 745 mmHg 60%
18:00 +20°C° 0.1 mm 3 mps 745 mmHg 66%
19:00 +19°C° 0.1 mm 3 mps 745 mmHg 73%
20:00 +17°C° 0.1 mm 2 mps 745 mmHg 80%
21:00 +16°C° 0 mm 2 mps 745 mmHg 83%
22:00 +16°C° 0 mm 2 mps 745 mmHg 85%
23:00 +15°C° 0 mm 2 mps 745 mmHg 88%

15 July, Wednesday

Time Temperature Precipitation Wind Pressure Humidity
00:00 +14°C° 0 mm 2 mps 745 mmHg 89%
01:00 +14°C° 0 mm 2 mps 745 mmHg 91%
02:00 +13°C° 0 mm 2 mps 746 mmHg 92%
03:00 +13°C° 0 mm 2 mps 746 mmHg 92%
04:00 +13°C° 0 mm 2 mps 746 mmHg 92%
05:00 +13°C° 0 mm 2 mps 746 mmHg 93%
06:00 +15°C° 0 mm 2 mps 746 mmHg 86%
07:00 +17°C° 0 mm 2 mps 746 mmHg 80%
08:00 +18°C° 0 mm 2 mps 746 mmHg 74%
09:00 +20°C° 0 mm 2 mps 746 mmHg 68%
10:00 +22°C° 0 mm 1 mps 746 mmHg 62%
11:00 +23°C° 0 mm 1 mps 746 mmHg 56%
12:00 +24°C° 0.1 mm 1 mps 746 mmHg 54%
13:00 +24°C° 0.1 mm 2 mps 746 mmHg 53%
14:00 +25°C° 0.1 mm 2 mps 746 mmHg 51%
15:00 +25°C° 0.1 mm 2 mps 745 mmHg 53%
16:00 +24°C° 0.1 mm 2 mps 745 mmHg 56%
17:00 +24°C° 0.1 mm 1 mps 745 mmHg 58%
18:00 +23°C° 0.1 mm 1 mps 745 mmHg 64%
19:00 +21°C° 0.1 mm 1 mps 745 mmHg 70%
20:00 +19°C° 0.1 mm 1 mps 744 mmHg 76%
21:00 +19°C° 0 mm 1 mps 744 mmHg 78%
22:00 +18°C° 0 mm 1 mps 745 mmHg 80%
23:00 +16°C° 0 mm 2 mps 745 mmHg 82%

16 July, Thursday

Time Temperature Precipitation Wind Pressure Humidity
00:00 +16°C° 0 mm 2 mps 744 mmHg 84%
01:00 +16°C° 0 mm 2 mps 744 mmHg 85%
02:00 +15°C° 0 mm 2 mps 744 mmHg 86%
03:00 +15°C° 0 mm 2 mps 744 mmHg 87%
04:00 +15°C° 0 mm 2 mps 743 mmHg 87%
05:00 +15°C° 0 mm 2 mps 743 mmHg 88%
06:00 +17°C° 0 mm 2 mps 743 mmHg 83%
07:00 +18°C° 0 mm 3 mps 743 mmHg 78%
08:00 +20°C° 0 mm 3 mps 743 mmHg 73%
09:00 +22°C° 0.3 mm 3 mps 743 mmHg 69%
10:00 +24°C° 0.3 mm 3 mps 743 mmHg 64%
11:00 +25°C° 0.3 mm 4 mps 742 mmHg 60%
12:00 +23°C° 1.2 mm 4 mps 742 mmHg 66%
13:00 +22°C° 1.2 mm 5 mps 742 mmHg 72%
14:00 +21°C° 1.2 mm 5 mps 742 mmHg 78%
15:00 +21°C° 0.1 mm 5 mps 742 mmHg 79%
16:00 +20°C° 0.1 mm 4 mps 742 mmHg 80%
17:00 +20°C° 0.1 mm 4 mps 742 mmHg 81%
18:00 +19°C° 0.1 mm 4 mps 742 mmHg 83%
19:00 +18°C° 0.1 mm 3 mps 742 mmHg 85%
20:00 +17°C° 0.1 mm 3 mps 742 mmHg 87%
21:00 +17°C° 0 mm 3 mps 742 mmHg 88%
22:00 +15°C° 0 mm 4 mps 742 mmHg 89%
23:00 +14°C° 0 mm 4 mps 742 mmHg 90%
Show more